CSZ8545 ZSWZ-ZGSD

Flight info

Callsign CSZ8545
Flight time N/A
Altitude 27600
Route RUP51X RUPOX/K0885S0920 B221 LJG A470 BEBEM R200 OVGOT OVG01A
Aircraft B738/M-SDE2E3FGHIRWXY/LB1

Departure

Time N/A
Airport Wenzhou Longwan International Airport (ZSWZ)

Arrival

Time 2026-04-18 08:56
Airport Zhuhai Jinwan Airport (ZGSD)
Time Latitude Longitude Altitude Speed Heading
2026-04-18 08:56 22.01120 113.37464 28 ft 0 kts 226°
2026-04-18 09:06 22.01122 113.37466 15 ft 2 kts 225°
2026-04-18 09:06 22.01135 113.37480 20 ft 3 kts 223°
2026-04-18 09:06 22.01150 113.37494 19 ft 3 kts 218°
2026-04-18 09:07 22.01167 113.37506 20 ft 3 kts 208°
2026-04-18 09:07 22.01185 113.37515 18 ft 3 kts 187°
2026-04-18 09:07 22.01200 113.37513 20 ft 2 kts 143°
2026-04-18 09:07 22.01204 113.37511 17 ft 0 kts 135°
2026-04-18 09:10 22.01203 113.37512 17 ft 1 kts 135°
2026-04-18 09:10 22.01179 113.37537 17 ft 8 kts 135°
2026-04-18 09:10 22.01122 113.37597 17 ft 14 kts 135°
2026-04-18 09:11 22.01039 113.37686 17 ft 19 kts 135°
2026-04-18 09:11 22.00943 113.37702 17 ft 18 kts 225°
2026-04-18 09:11 22.00846 113.37596 17 ft 21 kts 225°
2026-04-18 09:11 22.00734 113.37479 17 ft 23 kts 224°
2026-04-18 09:12 22.00621 113.37359 17 ft 23 kts 225°
2026-04-18 09:12 22.00503 113.37233 16 ft 24 kts 224°
2026-04-18 09:12 22.00381 113.37105 16 ft 25 kts 224°
2026-04-18 09:12 22.00256 113.36970 16 ft 26 kts 224°
2026-04-18 09:13 22.00127 113.36834 17 ft 26 kts 224°
2026-04-18 09:13 22.00021 113.36723 17 ft 21 kts 224°
2026-04-18 09:13 21.99915 113.36609 17 ft 22 kts 225°
2026-04-18 09:13 21.99803 113.36490 17 ft 23 kts 224°
2026-04-18 09:14 21.99684 113.36366 18 ft 24 kts 224°
2026-04-18 09:14 21.99568 113.36240 17 ft 12 kts 225°
2026-04-18 09:14 21.99493 113.36211 16 ft 13 kts 145°
2026-04-18 09:14 21.99431 113.36280 17 ft 14 kts 133°
2026-04-18 09:15 21.99442 113.36369 15 ft 13 kts 37°
2026-04-18 09:15 21.99496 113.36417 16 ft 0 kts 44°
2026-04-18 09:15 21.99498 113.36420 16 ft 2 kts 44°
2026-04-18 09:15 21.99562 113.36487 16 ft 37 kts 44°
2026-04-18 09:16 21.99890 113.36836 17 ft 94 kts 44°
2026-04-18 09:16 22.00471 113.37452 18 ft 138 kts 44°
2026-04-18 09:16 22.01223 113.38277 87 ft 164 kts 48°
2026-04-18 09:16 22.02027 113.39145 511 ft 166 kts 45°
2026-04-18 09:17 22.02853 113.40009 948 ft 167 kts 44°
2026-04-18 09:17 22.03683 113.40904 1398 ft 169 kts 46°
2026-04-18 09:17 22.04511 113.41823 1833 ft 176 kts 44°
2026-04-18 09:17 22.05456 113.42833 1944 ft 205 kts 44°
2026-04-18 09:18 22.06437 113.43881 2706 ft 192 kts 41°
2026-04-18 09:18 22.07451 113.44854 3182 ft 205 kts 39°
2026-04-18 09:18 22.08575 113.45923 3343 ft 225 kts 40°
2026-04-18 09:18 22.09807 113.47083 3504 ft 243 kts 40°
2026-04-18 09:19 22.11118 113.48322 3702 ft 261 kts 40°
2026-04-18 09:19 22.12506 113.49645 3855 ft 267 kts 40°
2026-04-18 09:19 22.13899 113.50981 4021 ft 271 kts 40°
2026-04-18 09:19 22.15316 113.52341 4693 ft 272 kts 40°
2026-04-18 09:20 22.16733 113.53702 5330 ft 275 kts 40°
2026-04-18 09:20 22.18178 113.55089 5945 ft 280 kts 39°
2026-04-18 09:20 22.19636 113.56489 6573 ft 283 kts 39°
2026-04-18 09:20 22.21118 113.57912 7185 ft 287 kts 39°
2026-04-18 09:21 22.22614 113.59350 7823 ft 290 kts 39°
2026-04-18 09:21 22.24130 113.60806 8474 ft 294 kts 39°
2026-04-18 09:21 22.25695 113.62245 9134 ft 296 kts 37°
2026-04-18 09:21 22.27294 113.63619 9807 ft 299 kts 36°
2026-04-18 09:22 22.28975 113.65042 10269 ft 311 kts 36°
2026-04-18 09:22 22.30738 113.66534 10419 ft 333 kts 36°
2026-04-18 09:22 22.32617 113.68133 10570 ft 353 kts 36°
2026-04-18 09:22 22.34561 113.69795 10730 ft 369 kts 37°
2026-04-18 09:23 22.36595 113.71543 11112 ft 377 kts 37°
2026-04-18 09:23 22.38658 113.73319 11666 ft 380 kts 37°
2026-04-18 09:23 22.40727 113.75101 12275 ft 381 kts 37°
2026-04-18 09:23 22.42812 113.76895 12834 ft 385 kts 37°
2026-04-18 09:24 22.44907 113.78714 13388 ft 389 kts 38°
2026-04-18 09:24 22.47002 113.80653 13919 ft 393 kts 39°
2026-04-18 09:24 22.49028 113.82587 14410 ft 396 kts 40°
2026-04-18 09:24 22.51105 113.84582 14921 ft 400 kts 40°
2026-04-18 09:25 22.53196 113.86583 15421 ft 403 kts 39°
2026-04-18 09:25 22.55309 113.88595 15929 ft 407 kts 39°
2026-04-18 09:25 22.57447 113.90623 16433 ft 410 kts 39°
2026-04-18 09:25 22.59602 113.92664 16919 ft 414 kts 39°
2026-04-18 09:26 22.61781 113.94728 17385 ft 418 kts 39°
2026-04-18 09:26 22.63975 113.96806 17863 ft 421 kts 39°
2026-04-18 09:26 22.66190 113.98905 18294 ft 425 kts 39°
2026-04-18 09:26 22.68568 114.00787 18657 ft 425 kts 24°
2026-04-18 09:27 22.71360 114.01744 19066 ft 420 kts
2026-04-18 09:27 22.74260 114.01774 19517 ft 416 kts 349°
2026-04-18 09:27 22.77021 114.00944 19935 ft 412 kts 335°
2026-04-18 09:27 22.79667 113.99722 20360 ft 414 kts 333°
2026-04-18 09:28 22.82306 113.98472 20771 ft 416 kts 333°
2026-04-18 09:28 22.84984 113.97242 21198 ft 418 kts 334°
2026-04-18 09:28 22.87685 113.96048 21610 ft 421 kts 337°
2026-04-18 09:28 22.90591 113.95417 21972 ft 433 kts 354°
2026-04-18 09:29 22.93618 113.95686 22381 ft 440 kts
2026-04-18 09:29 22.96649 113.96227 22762 ft 444 kts
2026-04-18 09:29 22.99704 113.96816 23105 ft 447 kts
2026-04-18 09:29 23.02773 113.97404 23453 ft 450 kts
2026-04-18 09:30 23.05862 113.97975 23760 ft 452 kts
2026-04-18 09:30 23.08972 113.98532 24061 ft 453 kts
2026-04-18 09:30 23.12096 113.99079 24364 ft 455 kts
2026-04-18 09:30 23.15225 113.99623 24677 ft 457 kts
2026-04-18 09:31 23.18371 114.00170 24956 ft 459 kts
2026-04-18 09:31 23.21535 114.00721 25243 ft 461 kts
2026-04-18 09:31 23.24750 114.01301 25525 ft 464 kts
2026-04-18 09:31 23.27835 114.02268 25806 ft 473 kts 16°
2026-04-18 09:32 23.30845 114.03788 26006 ft 479 kts 25°
2026-04-18 09:32 23.33629 114.05832 26206 ft 489 kts 34°
2026-04-18 09:32 23.36271 114.08194 26426 ft 493 kts 36°
2026-04-18 09:32 23.38928 114.10566 26672 ft 494 kts 34°
2026-04-18 09:33 23.41617 114.12905 26936 ft 496 kts 34°
2026-04-18 09:33 23.44336 114.15229 27202 ft 497 kts 33°
2026-04-18 09:33 23.46182 114.16796 27374 ft 499 kts 33°
2026-04-18 09:33 23.48926 114.19119 27612 ft 501 kts 33°
2026-04-18 09:34 23.51681 114.21454 27838 ft 504 kts 33°
2026-04-18 09:34 23.54451 114.23807 28052 ft 506 kts 33°
2026-04-18 09:34 23.57228 114.26173 28284 ft 508 kts 33°
2026-04-18 09:34 23.60012 114.28548 28513 ft 510 kts 33°
2026-04-18 09:35 23.62809 114.30935 28710 ft 512 kts 33°
2026-04-18 09:35 23.65623 114.33333 28927 ft 513 kts 33°
2026-04-18 09:35 23.68458 114.35695 29229 ft 512 kts 32°
2026-04-18 09:35 23.71304 114.38025 29585 ft 511 kts 31°
2026-04-18 09:36 23.74152 114.40343 29900 ft 511 kts 31°
2026-04-18 09:36 23.76998 114.42661 30152 ft 511 kts 31°
2026-04-18 09:36 23.79852 114.44989 30374 ft 512 kts 31°
2026-04-18 09:36 23.82709 114.47326 30606 ft 513 kts 31°
2026-04-18 09:37 23.85563 114.49668 30813 ft 514 kts 31°
2026-04-18 09:37 23.88422 114.52019 31037 ft 515 kts 31°
2026-04-18 09:37 23.91289 114.54379 31265 ft 516 kts 32°
2026-04-18 09:37 23.94163 114.56747 31448 ft 518 kts 31°
2026-04-18 09:38 23.97048 114.59125 31620 ft 520 kts 32°
2026-04-18 09:38 23.99943 114.61511 31823 ft 522 kts 32°
2026-04-18 09:38 24.02875 114.63932 32077 ft 522 kts 31°
2026-04-18 09:38 24.05777 114.66329 32312 ft 522 kts 32°
2026-04-18 09:39 24.08673 114.68720 32507 ft 523 kts 32°
2026-04-18 09:39 24.11545 114.71093 32718 ft 524 kts 32°
2026-04-18 09:39 24.14493 114.73531 32897 ft 526 kts 32°
2026-04-18 09:39 24.17411 114.75946 33103 ft 527 kts 32°
2026-04-18 09:40 24.20335 114.78368 33336 ft 527 kts 32°
2026-04-18 09:40 24.23263 114.80794 33548 ft 528 kts 32°
2026-04-18 09:40 24.26267 114.83093 33720 ft 524 kts 24°
2026-04-18 09:40 24.29488 114.84920 33919 ft 517 kts 16°
2026-04-18 09:41 24.32836 114.86259 34123 ft 507 kts
2026-04-18 09:41 24.36254 114.87120 34374 ft 502 kts
2026-04-18 09:41 24.39662 114.87904 34678 ft 499 kts
2026-04-18 09:41 24.43064 114.88685 34885 ft 500 kts
2026-04-18 09:42 24.46422 114.89480 35001 ft 500 kts
2026-04-18 09:42 24.49860 114.90318 35016 ft 500 kts
2026-04-18 09:42 24.56616 114.91998 35041 ft 502 kts
2026-04-18 09:43 24.63453 114.93697 35040 ft 504 kts
2026-04-18 09:43 24.70304 114.95388 35037 ft 505 kts
2026-04-18 09:44 24.77164 114.97085 35037 ft 505 kts
2026-04-18 09:44 24.84021 114.98757 35043 ft 505 kts
2026-04-18 09:45 24.90877 115.00420 35042 ft 504 kts
2026-04-18 09:45 24.97719 115.02085 35031 ft 503 kts
2026-04-18 09:46 25.04559 115.03754 35031 ft 502 kts
2026-04-18 09:46 25.11376 115.05420 35031 ft 501 kts
2026-04-18 09:47 25.18178 115.07085 35034 ft 500 kts
2026-04-18 09:47 25.24967 115.08747 35039 ft 499 kts
2026-04-18 09:48 25.31747 115.10179 35028 ft 487 kts 353°
2026-04-18 09:48 25.35072 115.10055 35045 ft 471 kts 343°
2026-04-18 09:48 25.38195 115.09363 35046 ft 459 kts 334°
2026-04-18 09:49 25.41129 115.08102 35048 ft 446 kts 325°
2026-04-18 09:49 25.43925 115.06623 35039 ft 446 kts 325°
2026-04-18 09:49 25.49530 115.03654 35039 ft 448 kts 325°
2026-04-18 09:50 25.55186 115.00718 35034 ft 449 kts 326°
2026-04-18 09:50 25.60858 114.97802 35043 ft 450 kts 326°
2026-04-18 09:51 25.65214 114.95560 35040 ft 450 kts 326°
2026-04-18 09:51 25.70897 114.92631 35035 ft 450 kts 326°
2026-04-18 09:52 25.76846 114.90287 35037 ft 474 kts 346°
2026-04-18 09:52 25.80202 114.90420 35035 ft 495 kts
2026-04-18 09:52 25.83521 114.91628 35043 ft 511 kts 20°
2026-04-18 09:53 25.86487 114.93877 35033 ft 525 kts 39°
2026-04-18 09:53 25.89029 114.96794 35063 ft 527 kts 43°
2026-04-18 09:53 25.93931 115.02891 35029 ft 529 kts 44°
2026-04-18 09:54 25.98846 115.08964 35019 ft 528 kts 43°
2026-04-18 09:54 26.03824 115.14949 35041 ft 527 kts 42°
2026-04-18 09:55 26.08827 115.20916 35046 ft 529 kts 42°
2026-04-18 09:55 26.13848 115.26926 35039 ft 530 kts 42°
2026-04-18 09:56 26.18863 115.32951 35048 ft 531 kts 43°
2026-04-18 09:56 26.23896 115.39004 35040 ft 533 kts 43°
2026-04-18 09:57 26.28936 115.45061 35052 ft 534 kts 42°
2026-04-18 09:57 26.34002 115.51129 35044 ft 534 kts 42°
2026-04-18 09:58 26.39058 115.57193 35056 ft 534 kts 43°
2026-04-18 09:58 26.44111 115.63271 35051 ft 532 kts 43°
2026-04-18 09:59 26.49145 115.69334 35064 ft 532 kts 43°
2026-04-18 10:00 26.56700 115.78444 35056 ft 534 kts 43°
2026-04-18 10:00 26.61740 115.84536 35065 ft 534 kts 43°
2026-04-18 10:01 26.66780 115.90636 35058 ft 535 kts 43°
2026-04-18 10:01 26.71828 115.96753 35063 ft 535 kts 43°
2026-04-18 10:02 26.76897 116.02854 35052 ft 535 kts 42°
2026-04-18 10:02 26.81977 116.08936 35049 ft 535 kts 42°
2026-04-18 10:03 26.87053 116.15034 35050 ft 535 kts 43°
2026-04-18 10:03 26.92118 116.21134 35050 ft 534 kts 43°
2026-04-18 10:04 26.97173 116.27221 35045 ft 534 kts 43°
2026-04-18 10:04 27.02229 116.33315 35062 ft 533 kts 43°
2026-04-18 10:05 27.07282 116.39418 35054 ft 534 kts 43°
2026-04-18 10:05 27.12328 116.45522 35051 ft 534 kts 43°
2026-04-18 10:06 27.17418 116.51689 35049 ft 534 kts 43°
2026-04-18 10:06 27.22443 116.57760 35051 ft 534 kts 42°
2026-04-18 10:07 27.27629 116.63797 35051 ft 533 kts 41°
2026-04-18 10:07 27.32770 116.69737 35061 ft 533 kts 41°
2026-04-18 10:08 27.37960 116.75772 35044 ft 534 kts 41°
2026-04-18 10:08 27.43110 116.81793 35052 ft 534 kts 41°
2026-04-18 10:09 27.48259 116.87823 35049 ft 534 kts 41°
2026-04-18 10:09 27.53420 116.93863 35068 ft 535 kts 41°
2026-04-18 10:10 27.58611 116.99866 35072 ft 535 kts 41°
2026-04-18 10:10 27.63817 117.05869 35070 ft 536 kts 41°
2026-04-18 10:11 27.69025 117.11894 35065 ft 536 kts 41°
2026-04-18 10:11 27.74218 117.17922 35040 ft 535 kts 41°
2026-04-18 10:12 27.79376 117.23946 35065 ft 531 kts 41°
2026-04-18 10:12 27.84500 117.29968 35093 ft 530 kts 42°
2026-04-18 10:13 27.88813 117.34982 35083 ft 531 kts 41°
2026-04-18 10:13 27.93985 117.40955 35076 ft 532 kts 41°
2026-04-18 10:14 27.99151 117.46978 35070 ft 535 kts 41°
2026-04-18 10:14 28.04316 117.53033 35071 ft 534 kts 41°
2026-04-18 10:15 28.09480 117.59085 35084 ft 536 kts 41°
2026-04-18 10:15 28.14663 117.65162 35076 ft 537 kts 41°
2026-04-18 10:16 28.19865 117.71273 35072 ft 539 kts 41°
2026-04-18 10:16 28.25067 117.77397 35077 ft 540 kts 41°
2026-04-18 10:17 28.30271 117.83531 35074 ft 540 kts 41°
2026-04-18 10:17 28.35473 117.89673 35066 ft 540 kts 41°
2026-04-18 10:18 28.40677 117.95826 35065 ft 539 kts 41°
2026-04-18 10:18 28.45828 118.02023 35066 ft 539 kts 43°
2026-04-18 10:19 28.50909 118.08303 35068 ft 539 kts 43°
2026-04-18 10:19 28.55972 118.14579 35062 ft 538 kts 43°
2026-04-18 10:20 28.61074 118.20884 35062 ft 538 kts 43°
2026-04-18 10:20 28.66142 118.27143 35069 ft 537 kts 43°
2026-04-18 10:21 28.71202 118.33400 35061 ft 537 kts 43°
2026-04-18 10:21 28.76260 118.39666 35067 ft 537 kts 43°
2026-04-18 10:22 28.81312 118.45937 35067 ft 537 kts 43°
2026-04-18 10:22 28.86372 118.52226 35056 ft 538 kts 43°
2026-04-18 10:23 28.91423 118.58514 35065 ft 538 kts 43°
2026-04-18 10:23 28.96478 118.64818 35068 ft 539 kts 43°
2026-04-18 10:24 29.01541 118.71140 35064 ft 539 kts 43°
2026-04-18 10:24 29.06602 118.77470 35037 ft 539 kts 43°
2026-04-18 10:25 29.11654 118.83801 35062 ft 538 kts 43°
2026-04-18 10:25 29.16690 118.90126 35078 ft 538 kts 43°
2026-04-18 10:26 29.21752 118.96482 35067 ft 541 kts 43°
2026-04-18 10:26 29.26795 119.02829 35070 ft 543 kts 43°
2026-04-18 10:27 29.31876 119.09235 35056 ft 544 kts 43°
2026-04-18 10:27 29.36539 119.16092 35065 ft 549 kts 57°
2026-04-18 10:28 29.39683 119.24096 35065 ft 551 kts 68°
2026-04-18 10:28 29.42609 119.32218 35057 ft 551 kts 66°
2026-04-18 10:29 29.45670 119.40293 35043 ft 551 kts 65°
2026-04-18 10:29 29.48714 119.48352 35050 ft 550 kts 66°
2026-04-18 10:30 29.51730 119.56418 35061 ft 549 kts 66°
2026-04-18 10:30 29.55566 119.63905 35075 ft 542 kts 46°
2026-04-18 10:31 29.60946 119.69780 35062 ft 528 kts 28°
2026-04-18 10:31 29.67050 119.74461 35072 ft 527 kts 26°
2026-04-18 10:32 29.73217 119.79056 35065 ft 529 kts 26°
2026-04-18 10:32 29.79361 119.83750 35066 ft 531 kts 27°
2026-04-18 10:33 29.85493 119.88514 35068 ft 533 kts 27°
2026-04-18 10:33 29.91631 119.93300 35061 ft 533 kts 27°
2026-04-18 10:34 29.97777 119.98093 35072 ft 534 kts 27°
2026-04-18 10:34 30.03939 120.02899 35077 ft 534 kts 27°
2026-04-18 10:35 30.09879 120.07539 35076 ft 534 kts 27°
2026-04-18 10:35 30.15749 120.12132 35079 ft 534 kts 27°
2026-04-18 10:36 30.21910 120.16961 35081 ft 535 kts 27°
2026-04-18 10:36 30.28069 120.21795 35092 ft 535 kts 27°
2026-04-18 10:37 30.34227 120.26635 35087 ft 535 kts 27°
2026-04-18 10:37 30.40417 120.31384 35087 ft 534 kts 26°
2026-04-18 10:38 30.46663 120.36079 35078 ft 534 kts 26°
2026-04-18 10:38 30.52891 120.40779 35083 ft 535 kts 26°
2026-04-18 10:39 30.59115 120.45506 35082 ft 535 kts 26°
2026-04-18 10:39 30.65343 120.50252 35073 ft 535 kts 26°
2026-04-18 10:40 30.71563 120.54998 35064 ft 532 kts 26°
2026-04-18 10:40 30.74613 120.57335 35047 ft 517 kts 26°
2026-04-18 10:40 30.77569 120.59603 35054 ft 502 kts 26°
2026-04-18 10:40 30.80447 120.61809 35046 ft 489 kts 25°
2026-04-18 10:41 30.83250 120.63954 35044 ft 475 kts 25°
2026-04-18 10:41 30.85969 120.66033 35047 ft 462 kts 25°
2026-04-18 10:41 30.88620 120.68060 35044 ft 449 kts 25°
2026-04-18 10:42 30.93845 120.72066 35088 ft 457 kts 28°
2026-04-18 10:42 30.96264 120.74598 35072 ft 476 kts 45°
2026-04-18 10:42 30.98158 120.77804 35080 ft 489 kts 62°
2026-04-18 10:42 30.99386 120.81524 35091 ft 493 kts 75°
2026-04-18 10:43 31.00296 120.85380 35086 ft 495 kts 76°
2026-04-18 10:43 31.02045 120.93139 35056 ft 492 kts 76°
2026-04-18 10:44 31.03862 121.00781 35011 ft 493 kts 75°
2026-04-18 10:44 31.04807 121.04649 34691 ft 497 kts 75°
2026-04-18 10:44 31.05437 121.07216 34297 ft 499 kts 75°
2026-04-18 10:44 31.06443 121.11332 33516 ft 507 kts 75°
2026-04-18 10:45 31.07411 121.15310 32741 ft 513 kts 74°
2026-04-18 10:45 31.08424 121.19313 32027 ft 517 kts 73°
2026-04-18 10:45 31.09484 121.23336 31398 ft 519 kts 72°
2026-04-18 10:45 31.10556 121.27365 30830 ft 519 kts 72°
2026-04-18 10:46 31.11614 121.31384 30263 ft 518 kts 72°
2026-04-18 10:46 31.12602 121.35294 29629 ft 517 kts 77°
2026-04-18 10:46 31.12972 121.39464 28876 ft 514 kts 95°
2026-04-18 10:46 31.12381 121.43583 28173 ft 504 kts 112°
2026-04-18 10:47 31.11004 121.47213 27510 ft 491 kts 127°
2026-04-18 10:47 31.09681 121.49381 27028 ft 481 kts 137°
2026-04-18 10:47 31.06960 121.52272 26196 ft 466 kts 152°
2026-04-18 10:47 31.04366 121.53916 25533 ft 453 kts 164°
2026-04-18 10:48 31.01409 121.54885 25174 ft 432 kts 177°
2026-04-18 10:48 30.98480 121.55107 24843 ft 413 kts 188°
2026-04-18 10:48 30.95682 121.54644 24277 ft 403 kts 199°
2026-04-18 10:48 30.93074 121.53546 23619 ft 398 kts 209°
2026-04-18 10:49 30.90720 121.51880 22879 ft 394 kts 219°
2026-04-18 10:49 30.88705 121.49753 22260 ft 389 kts 228°
2026-04-18 10:49 30.86990 121.47337 21678 ft 384 kts 236°
2026-04-18 10:49 30.85684 121.44655 21073 ft 381 kts 247°
2026-04-18 10:50 30.85011 121.41700 20476 ft 380 kts 264°
2026-04-18 10:50 30.85053 121.38635 19949 ft 378 kts 274°
2026-04-18 10:50 30.85515 121.35632 19425 ft 377 kts 282°
2026-04-18 10:50 30.86327 121.32742 18896 ft 376 kts 290°
2026-04-18 10:51 30.87552 121.30052 18371 ft 378 kts 301°
2026-04-18 10:51 30.88592 121.28431 18013 ft 378 kts 306°
2026-04-18 10:51 30.91054 121.25538 17238 ft 379 kts 318°
2026-04-18 10:51 30.93178 121.23718 16674 ft 377 kts 321°
2026-04-18 10:52 30.94596 121.22558 16317 ft 376 kts 322°
2026-04-18 10:52 30.96735 121.20826 15784 ft 373 kts 322°
2026-04-18 10:52 30.98860 121.19103 15256 ft 370 kts 322°
2026-04-18 10:52 31.00958 121.17390 14936 ft 362 kts 322°
2026-04-18 10:53 31.02969 121.15740 14849 ft 344 kts 322°
2026-04-18 10:53 31.04872 121.14172 14626 ft 329 kts 322°
2026-04-18 10:53 31.06723 121.12639 14125 ft 327 kts 322°
2026-04-18 10:53 31.08580 121.11096 13947 ft 329 kts 322°
2026-04-18 10:54 31.10447 121.09543 13841 ft 330 kts 322°
2026-04-18 10:54 31.12307 121.07996 13790 ft 327 kts 322°
2026-04-18 10:54 31.14161 121.06455 13786 ft 327 kts 322°
2026-04-18 10:54 31.16013 121.04913 13786 ft 328 kts 322°
2026-04-18 10:55 31.17871 121.03367 13782 ft 328 kts 322°
2026-04-18 10:55 31.19725 121.01823 13735 ft 329 kts 322°
2026-04-18 10:55 31.21605 121.00256 13368 ft 330 kts 322°
2026-04-18 10:55 31.23463 120.98708 13087 ft 325 kts 322°
2026-04-18 10:56 31.25289 120.97186 12737 ft 321 kts 322°
2026-04-18 10:56 31.27105 120.95672 12337 ft 320 kts 323°
2026-04-18 10:56 31.28783 120.93997 11909 ft 317 kts 308°
2026-04-18 10:56 31.29916 120.91806 11531 ft 314 kts 296°
2026-04-18 10:57 31.30862 120.89520 11161 ft 312 kts 295°
2026-04-18 10:57 31.31781 120.87232 10769 ft 311 kts 295°
2026-04-18 10:57 31.32700 120.84943 10395 ft 310 kts 295°
2026-04-18 10:57 31.33613 120.82685 10188 ft 300 kts 295°
2026-04-18 10:58 31.34484 120.80542 10082 ft 283 kts 295°
2026-04-18 10:58 31.35319 120.78498 9682 ft 279 kts 295°
2026-04-18 10:58 31.36146 120.76475 9317 ft 273 kts 296°
2026-04-18 10:58 31.36687 120.75156 9054 ft 270 kts 296°
2026-04-18 10:59 31.36923 120.74578 8943 ft 269 kts 296°
2026-04-18 10:59 31.37691 120.72703 8588 ft 267 kts 296°
2026-04-18 10:59 31.38470 120.70805 8239 ft 270 kts 296°
2026-04-18 10:59 31.39287 120.68809 7884 ft 272 kts 296°
2026-04-18 11:00 31.40101 120.66821 7502 ft 268 kts 296°
2026-04-18 11:00 31.40907 120.64854 7205 ft 268 kts 296°
2026-04-18 11:00 31.41712 120.62889 6893 ft 267 kts 296°
2026-04-18 11:00 31.42512 120.60933 6587 ft 267 kts 296°
2026-04-18 11:01 31.43305 120.58992 6267 ft 260 kts 296°
2026-04-18 11:01 31.44077 120.57103 5940 ft 254 kts 296°
2026-04-18 11:01 31.44549 120.55167 5687 ft 246 kts 271°
2026-04-18 11:02 31.43191 120.51756 5278 ft 234 kts 222°
2026-04-18 11:02 31.41801 120.50790 5080 ft 233 kts 204°
2026-04-18 11:02 31.40291 120.50130 4880 ft 229 kts 201°
2026-04-18 11:02 31.38801 120.49517 4592 ft 225 kts 201°
2026-04-18 11:03 31.37326 120.48901 4224 ft 225 kts 201°
2026-04-18 11:03 31.35850 120.48275 3843 ft 226 kts 201°
2026-04-18 11:03 31.34380 120.47648 3489 ft 224 kts 201°
2026-04-18 11:03 31.32933 120.47013 3181 ft 219 kts 206°
2026-04-18 11:04 31.31829 120.45883 2923 ft 207 kts 242°
2026-04-18 11:04 31.31471 120.44357 2873 ft 186 kts 271°
2026-04-18 11:04 31.31666 120.42947 2833 ft 169 kts 290°
2026-04-18 11:04 31.32059 120.41651 2693 ft 170 kts 292°
2026-04-18 11:05 31.32471 120.40357 2541 ft 169 kts 292°
2026-04-18 11:05 31.32918 120.39102 2377 ft 167 kts 308°
2026-04-18 11:05 31.33854 120.38390 2300 ft 162 kts 351°
2026-04-18 11:05 31.34971 120.38131 2269 ft 163 kts 336°
2026-04-18 11:06 31.36013 120.37628 2251 ft 163 kts 357°
2026-04-18 11:06 31.37061 120.37951 2247 ft 157 kts 18°
2026-04-18 11:06 31.38098 120.38211 2100 ft 154 kts 12°
2026-04-18 11:06 31.39129 120.38518 1901 ft 151 kts 17°
2026-04-18 11:07 31.40117 120.38905 1708 ft 148 kts 20°
2026-04-18 11:07 31.41084 120.39316 1513 ft 148 kts 20°
2026-04-18 11:07 31.42054 120.39735 1316 ft 149 kts 21°
2026-04-18 11:07 31.43028 120.40157 1115 ft 149 kts 21°
2026-04-18 11:08 31.43991 120.40573 921 ft 148 kts 21°
2026-04-18 11:08 31.44935 120.40981 746 ft 149 kts 21°
2026-04-18 11:08 31.45905 120.41401 552 ft 148 kts 22°
2026-04-18 11:08 31.46867 120.41819 360 ft 148 kts 23°
2026-04-18 11:09 31.47829 120.42234 197 ft 146 kts 22°
2026-04-18 11:09 31.48773 120.42642 26 ft 145 kts 21°
2026-04-18 11:09 31.49549 120.42982 25 ft 92 kts 18°
2026-04-18 11:09 31.49942 120.43148 24 ft 25 kts 20°
2026-04-18 11:10 31.50115 120.43165 25 ft 19 kts 355°
2026-04-18 11:10 31.50206 120.43150 27 ft 4 kts 351°
2026-04-18 11:10 31.50236 120.43144 27 ft 4 kts 351°
2026-04-18 11:10 31.50265 120.43136 25 ft 4 kts 334°
2026-04-18 11:11 31.50283 120.43110 27 ft 4 kts 297°
2026-04-18 11:11 31.50299 120.43069 25 ft 8 kts 290°
2026-04-18 11:11 31.50318 120.43011 25 ft 8 kts 296°
2026-04-18 11:11 31.50382 120.43000 26 ft 13 kts 18°
2026-04-18 11:12 31.50482 120.43040 25 ft 18 kts 20°
2026-04-18 11:12 31.50568 120.43077 29 ft 6 kts 20°
2026-04-18 11:12 31.50630 120.43104 28 ft 12 kts 20°
2026-04-18 11:12 31.50705 120.43137 26 ft 13 kts 20°
2026-04-18 11:13 31.50787 120.43167 28 ft 9 kts 354°
2026-04-18 11:13 31.50819 120.43117 25 ft 5 kts 292°
2026-04-18 11:13 31.50825 120.43097 29 ft 0 kts 291°